Starlink 33882

operational
NORAD ID: 63788 Int'l Des: 2025-091 Owner: SPXS Country: US Constellation: starlink
LEOCIRCULAR

关于 Starlink 33882

正在加载描述...

实时位置

正在加载3D地球...

即将过境

高度历史

Altitude vs Time

uPlot chart will show altitude changes over time

两行轨道根数

1 63788U 25091P 26035.28542592 .00024601 00000-0 90024-3 0 9993
2 63788 43.0019 241.1573 0001707 258.1622 101.9038 15.27589985 43788
Epoch: Feb 4, 2026 • Age: 6 hours

当前状态

高度 488.4 km
速度 7.62 km/s
星下点 -24.50°S, 118.54°W
发射日期 May 2, 2025
运行时间 0.7 years
类型 internet

技术详情

分类 Payload
质量 575.00 kg
干质量 530.00 kg
总质量 575.00 kg
长度 0.30 m
直径 4.10 m
跨度 29.00 m
形状 Box + pan
制造商 SPXS
平台类型 Starlink V2MO
阶段状态 In Orbit
所有者/国家 SPXS/US

大型星座

Loading constellations...